Flag for Germany Weather past 2 weeks in Willich, North Rhine-Westphalia, Germany

54 °F

Passing clouds.

Feels Like: 51 °F
Forecast: 40 / 54 °F
Wind: 9 mph from Northeast

Location: Duesseldorf

Current Time: Oct 10, 2015 at 6:09:00 AM

Latest Report: Oct 10, 2015 at 5:20 AM

Visibility: N/A

Pressure: 30.12 "Hg

Humidity: 88%

Dew point: 50 °F

Location of WillichLocation

Historic Weather in Willich — Graph


Willich temperature yesterday

Maximum temperature yesterday: 59 °F (at 1:20 PM)
Minimum temperature yesterday: 52 °F (at 5:20 AM)
Average temperature yesterday: 55 °F

Past Weeks' High & Low Weather Summary

High68 °F (Oct 3, 3:20 PM)100% (Sep 25, 6:20 AM)30.63 "Hg (Sep 25, 6:20 AM)
Low37 °F (Oct 2, 5:20 AM)43% (Sep 30, 3:20 PM)29.56 "Hg (Oct 6, 5:20 AM)
Average55 °F80%30.19 "Hg
* Reported Sep 25 5:20 AM — Oct 10 5:20 AM, Willich, Weather by CustomWeather, © 2015

Note: Actual official high and low records may vary slightly from our data, if they occured in-between our weather recording intervals... More about our weather records


Willich weather history for previous 24 hours

Time TempWeatherWind HumidityBarometerVisibility
5:20 AM
Sat, Oct 10
54 °FPassing clouds.9 mph88%30.12 "HgN/A
4:50 AM54 °FOvercast.7 mph94%30.12 "HgN/A
4:20 AM54 °FPassing clouds.8 mph94%30.15 "HgN/A
3:50 AM54 °FPassing clouds.9 mph94%30.15 "HgN/A
3:20 AM54 °FPassing clouds.8 mph94%30.15 "HgN/A
2:50 AM54 °FPartly cloudy.7 mph94%30.15 "HgN/A
2:20 AM54 °FPartly cloudy.9 mph94%30.15 "HgN/A
1:50 AM54 °FPassing clouds.8 mph94%30.15 "HgN/A
1:20 AM55 °FPassing clouds.9 mph88%30.15 "HgN/A
12:50 AM55 °FPartly cloudy.6 mph94%30.15 "HgN/A
12:20 AM55 °FPartly cloudy.7 mph94%30.15 "HgN/A
11:20 PM
Fri, Oct 9
55 °FPassing clouds.7 mph94%30.15 "HgN/A
10:50 PM55 °FLight rain. Passing clouds.7 mph94%30.15 "HgN/A
10:20 PM55 °FLight rain. Passing clouds.6 mph94%30.15 "HgN/A
9:50 PM55 °FPartly cloudy.5 mph94%30.15 "HgN/A
9:20 PM55 °FPartly cloudy.3 mph94%30.15 "HgN/A
8:50 PM55 °FPartly cloudy.3 mph88%30.15 "HgN/A
8:20 PM57 °FPassing clouds.3 mph82%30.15 "HgN/A
7:50 PM57 °FPartly sunny.5 mph82%30.15 "HgN/A
7:20 PM57 °FPartly sunny.7 mph82%30.15 "HgN/A
6:50 PM57 °FPartly sunny.6 mph82%30.15 "HgN/A
6:20 PM59 °FBroken clouds.7 mph72%30.15 "HgN/A
5:50 PM59 °FPartly sunny.5 mph72%30.15 "HgN/A
5:20 PM59 °FPartly sunny.5 mph72%30.15 "HgN/A
4:20 PM59 °FPartly sunny.6 mph68%30.15 "HgN/A
3:50 PM59 °FBroken clouds.6 mph68%30.15 "HgN/A
3:20 PM59 °FBroken clouds.6 mph72%30.15 "HgN/A
2:50 PM59 °FPartly sunny.8 mph72%30.15 "HgN/A
2:20 PM59 °FPartly sunny.6 mph68%30.18 "HgN/A
1:50 PM59 °FPartly sunny.6 mph72%30.18 "HgN/A
1:20 PM59 °FPartly sunny.6 mph72%30.18 "HgN/A
12:50 PM57 °FBroken clouds.5 mph77%30.18 "HgN/A
12:20 PM57 °FPartly sunny.5 mph77%30.18 "HgN/A
11:50 AM57 °FPartly sunny.7 mph72%30.18 "HgN/A
11:20 AM57 °FScattered clouds.5 mph77%30.18 "HgN/A
10:50 AM55 °FScattered clouds.3 mph88%30.18 "HgN/A
10:20 AM54 °FPartly sunny.2 mph100%30.18 "Hg6 mi
9:50 AM54 °FPartly sunny.2 mph100%30.18 "Hg5 mi
9:20 AM52 °FClear.2 mph100%30.18 "Hg4 mi
8:50 AM52 °FFog.3 mph100%30.18 "Hg4 mi
8:20 AM52 °FCool.2 mph100%30.18 "Hg2 mi
7:50 AM52 °FCool.3 mph100%30.18 "Hg4 mi
7:20 AM52 °FFog.3 mph100%30.15 "Hg4 mi
6:50 AM52 °FFog.1 mph100%30.15 "Hg5 mi
6:20 AM52 °FClear.2 mph100%30.15 "Hg5 mi
Weather by CustomWeather, © 2015

See weather overviewHow to use our weather pages